Terminal Aerodrome Forecast
Issued by NWS Atlanta, GA

Home | Current Version | Previous Version | Text Only | Print | Product List | Glossary On
Versions: 1 2 3 4 5 6 7 8 9 10 11 12 13 14 15 16 17 18 19 20 21 22 23 24 25 26 27 28 29 30 31 32 33
706
FTAK31 PAJN 091140
TAFAHN
TAF
PAHN 091140Z 0912/1012 28010KT 6SM -SHRA BR FEW020 OVC040
     FM091700 30010KT P6SM SCT010 SCT030 SCT080
     FM100000 30012G18KT P6SM SCT030 SCT150
     FM101000 30012KT P6SM -RA SCT030 OVC050
      AMD LTD TO CLD VIS AND WIND=

USA.gov is the U.S. government's official web portal to all federal, state and local government web resources and services.